#timestamp,LO_Frequency,Hit 
1499151615.6,286046993.2,N
1499151635.5,286046993.1,N
1499151655.3,286046991.3,N
1499151675.1,286046990.7,N
1499151695.9,286046993.2,N
1499151715.7,286046992.7,N
1499151735.5,286046993.1,N
1499151755.4,286046990.7,N
1499151775.2,286046992.9,N
1499151795.0,286046990.9,N
1499151795.9,286046990.9,N
1499151815.8,286046987.4,N
1499151835.6,286046988.2,N
1499151855.4,286046987.5,N
1499151875.2,286046988.5,N
1499151895.1,286046991.7,N
1499151896.0,286046991.7,N
1499151915.8,286046990.6,N
1499151935.6,286046993.0,N
1499151955.5,286046991.9,N
1499151975.3,286046992.8,N
1499151995.1,286046992.5,N
1499152015.9,286046992.6,N
1499152035.7,286046992.5,N
1499152055.5,286046992.6,N
1499152075.4,286046992.4,N
1499152095.2,286046994.8,N
1499152115.0,286046992.4,N
1499152115.9,286046992.4,N
1499152135.8,286046992.5,N
1499152155.6,286046993.0,N
1499152175.4,286046992.5,N
1499152195.3,286046993.3,N
1499152215.1,286046991.8,N
1499152216.0,286046991.8,N
1499152235.8,286046993.0,N
1499152255.7,286046990.1,N
1499152275.5,286046990.4,N
1499152295.3,286046990.7,N
1499152315.1,286046992.6,N
1499152335.9,286046991.7,N
1499152355.7,286046991.9,N
1499152375.5,286046992.1,N
1499152395.4,286046994.1,N
1499152415.2,286046991.9,N
1499152435.0,286046991.9,N
1499152435.9,286046991.9,N
1499152455.8,286046992.1,N
1499152475.6,286046990.5,N
1499152495.4,286046989.2,N
1499152515.3,286046991.2,N
1499152535.1,286046991.6,N
1499152536.0,286046991.6,N
1499152555.8,286046990.0,N
1499152575.7,286046988.7,N
1499152595.5,286046991.5,N
1499152615.3,286046988.7,N
1499152635.1,286046990.7,N
1499152655.9,286046989.9,N
1499152675.7,286046991.6,N
1499152695.5,286046989.6,N
1499152715.4,286046991.4,N
1499152735.2,286046989.3,N
1499152755.0,286046989.1,N
1499152755.9,286046989.1,N
1499152775.8,286046989.8,N
1499152795.6,286046989.2,N
1499152815.4,286046993.2,N
1499152835.3,286046990.4,N
1499152855.1,286046991.1,N
1499152856.0,286046991.1,N
1499152875.8,286046989.7,N
1499152895.7,286046989.9,N
1499152915.5,286046987.4,N
1499152935.3,286046983.8,N
1499152955.1,286046986.3,N
1499152975.9,286046988.3,N
1499152995.7,286046989.6,N
1499153015.5,286046989.0,N
1499153035.4,286046987.1,N
1499153055.2,286046988.0,N
1499153075.0,286046986.7,N
1499153075.9,286046986.7,N
1499153095.8,286046984.2,N
1499153115.6,286046986.2,N
1499153135.4,286046982.1,N
1499153155.3,286046982.1,N
1499153175.1,286046986.6,N
1499153176.0,286046986.6,N
1499153195.8,286046984.6,N
1499153215.7,286046986.3,N
1499153235.5,286046986.8,N
1499153255.3,286046985.2,N
1499153275.2,286046986.6,N
1499153295.9,286046986.6,N
1499153315.7,286046985.8,N
1499153335.6,286046988.0,N
1499153355.4,286046986.7,N
1499153375.2,286046985.0,N
1499153395.0,286046985.0,N
1499153396.0,286046985.0,N
1499153415.8,286046984.9,N
1499153435.6,286046984.7,N
1499153455.4,286046984.1,N
1499153475.3,286046984.4,N
1499153495.1,286046985.0,N
1499153515.8,286046984.9,N
1499153535.7,286046982.9,N
1499153555.5,286046983.1,N
1499153575.3,286046982.8,N
1499153595.2,286046983.0,N
1499153615.9,286046980.8,N
1499153635.7,286046980.5,N
1499153655.6,286046982.1,N
1499153675.4,286046982.6,N
1499153695.2,286046982.2,N
1499153715.0,286046983.4,N
1499153716.0,286046983.4,N
1499153735.8,286046981.4,N
1499153755.6,286046982.8,N
1499153775.4,286046984.7,N
1499153795.3,286046983.9,N
1499153815.1,286046982.6,N
1499153835.8,286046982.6,N
1499153855.7,286046982.1,N
1499153875.5,286046982.2,N
1499153895.3,286046985.2,N
1499153915.2,286046983.2,N
1499153935.9,286046981.9,N
1499153955.7,286046980.6,N
1499153975.6,286046974.6,N
1499153995.4,286046977.1,N
1499154015.2,286046987.7,N
1499154035.1,286046989.5,N
1499154036.0,286046989.5,N
1499154055.8,286046988.2,N
1499154075.6,286046985.8,N
1499154095.5,286046985.1,N
1499154115.3,286046984.7,N
1499154135.1,286046984.1,N
1499154155.9,286046987.7,N
1499154175.7,286046984.3,N
1499154195.5,286046986.7,N
1499154215.3,286046983.9,N
1499154235.2,286046986.7,N
1499154255.0,286046986.7,N
1499154255.9,286046986.7,N
1499154275.7,286046985.9,N
1499154295.6,286046985.9,N
1499154315.4,286046986.5,N
1499154335.2,286046986.0,N
1499154355.1,286046988.3,N
1499154356.0,286046988.3,N
1499154375.8,286046984.0,N
1499154395.6,286046984.5,N
1499154415.5,286046983.8,N
1499154435.3,286046985.8,N
1499154455.1,286046986.5,N
1499154475.9,286046984.1,N
1499154495.7,286046984.6,N
1499154515.5,286046982.2,N
1499154535.4,286046984.8,N
1499154555.2,286046982.4,N
1499154575.0,286046984.8,N
1499154575.9,286046984.8,N
1499154595.8,286046982.3,N
1499154615.6,286046983.6,N
1499154635.4,286046982.9,N
1499154655.3,286046979.3,N
1499154675.1,286046983.1,N
1499154676.0,286046983.1,N
1499154695.8,286046981.9,N
1499154715.7,286046981.8,N
1499154735.5,286046979.3,N
1499154755.3,286046979.0,N
1499154775.1,286046979.3,N
1499154795.9,286046980.4,N
1499154815.7,286046977.6,N
1499154835.5,286046978.1,N
1499154855.4,286046978.6,N
1499154875.2,286046976.8,N
1499154895.0,286046975.7,N
1499154895.9,286046975.7,N
1499154915.8,286046978.7,N
1499154935.6,286046975.3,N
1499154955.4,286046974.6,N
1499154975.3,286046974.9,N
1499154995.1,286046972.5,N
1499154996.0,286046972.5,N
1499155015.8,286046974.9,N
1499155035.7,286046974.7,N
1499155055.5,286046976.9,N
1499155075.3,286046976.4,N
1499155095.1,286046975.3,N
1499155115.9,286046975.2,N
1499155135.7,286046972.6,N
1499155155.5,286046973.9,N
1499155175.4,286046973.2,N
1499155195.2,286046972.1,N
